CW4114 Weather Reports


Display with metric or nautical units.
time (UTC)temp
F
wind
direction
speed
MPH
gust
MPH
rain 1hr
in
rain 24hr
in
rain mn
in
humidity
%
barometer
mb
20190920224027 64 0 0.0 2.0 0.00 0.00 0.00 85 1020.9
20190920223528 64 95 0.0 2.0 0.00 0.00 0.00 85 1021.0
20190920223112 64 96 0.0 2.0 0.00 0.00 0.00 85 1021.1
20190920222536 65 0 0.0 2.0 0.00 0.00 0.00 86 1020.9
20190920222027 65 0 0.0 2.0 0.00 0.00 0.00 85 1021.0
20190920221606 65 0 0.0 2.0 0.00 0.00 0.00 85 1021.0
20190920221032 65 0 0.0 3.0 0.00 0.00 0.00 85 1021.0
20190920220533 65 0 0.0 3.0 0.00 0.00 0.00 85 1020.8
20190920220052 65 0 0.0 3.0 0.00 0.00 0.00 85 1020.9
20190920215529 65 97 1.0 3.0 0.00 0.00 0.00 84 1020.9
20190920215045 66 0 0.0 3.0 0.00 0.00 0.00 84 1021.0
20190920214606 65 94 1.0 3.0 0.00 0.00 0.00 84 1021.0
20190920214027 65 0 0.0 2.0 0.00 0.00 0.00 85 1021.0
20190920213543 65 0 0.0 4.0 0.00 0.00 0.00 85 1021.0
20190920213048 65 165 1.0 4.0 0.00 0.00 0.00 85 1021.0
20190920212529 65 80 0.0 4.0 0.00 0.00 0.00 86 1021.2
20190920212034 65 68 1.0 3.0 0.00 0.00 0.00 86 1021.0
20190920211550 65 103 1.0 5.0 0.00 0.00 0.00 85 1021.2
20190920211029 65 73 1.0 6.0 0.00 0.00 0.00 85 1021.1
20190920210536 65 27 1.0 6.0 0.00 0.00 0.00 85 1021.1
20190920210041 65 79 2.0 6.0 0.00 0.00 0.00 86 1021.1
20190920205526 65 88 1.0 5.0 0.00 0.00 0.00 86 1021.1
20190920205041 64 66 1.0 5.0 0.00 0.00 0.00 86 1021.3
20190920204539 64 73 2.0 5.0 0.00 0.00 0.00 87 1021.4
20190920204029 64 97 2.0 5.0 0.00 0.00 0.00 87 1021.3
20190920203529 64 40 2.0 6.0 0.00 0.00 0.00 88 1021.3
20190920203036 64 4 2.0 6.0 0.00 0.00 0.00 88 1021.3
20190920202528 64 81 1.0 5.0 0.00 0.00 0.00 89 1021.4
20190920202026 64 89 2.0 5.0 0.00 0.00 0.00 89 1021.4
20190920201547 64 8 2.0 5.0 0.00 0.00 0.00 89 1021.3
20190920201029 64 110 2.0 6.0 0.00 0.00 0.00 90 1021.1
20190920200529 64 87 2.0 6.0 0.00 0.00 0.00 88 1021.0
20190920200042 64 91 2.0 6.0 0.00 0.00 0.00 88 1020.9
20190920195533 65 0 1.0 4.0 0.00 0.00 0.00 88 1020.9
20190920195033 65 89 1.0 5.0 0.00 0.00 0.00 88 1020.8
20190920194528 65 69 1.0 5.0 0.00 0.00 0.00 87 1020.8
20190920194030 66 119 2.0 4.0 0.00 0.00 0.00 85 1020.5
20190920193530 67 51 1.0 3.0 0.00 0.00 0.00 83 1020.4
20190920193107 68 5 1.0 5.0 0.00 0.00 0.00 85 1020.4
20190920192529 66 330 2.0 5.0 0.00 0.00 0.00 86 1020.4
20190920192031 66 359 1.0 5.0 0.00 0.00 0.00 85 1020.3
20190920191547 67 340 0.0 4.0 0.00 0.00 0.00 88 1020.3
20190920191027 66 61 2.0 4.0 0.00 0.00 0.00 85 1020.3
20190920190533 68 359 1.0 4.0 0.00 0.00 0.00 84 1020.5
20190920190034 67 359 1.0 4.0 0.00 0.00 0.00 85 1020.4
20190920185529 67 359 1.0 4.0 0.00 0.00 0.00 85 1020.4
20190920185029 67 356 1.0 3.0 0.00 0.00 0.00 87 1020.4
20190920184603 66 357 1.0 4.0 0.00 0.00 0.00 86 1020.4
20190920184028 67 357 1.0 4.0 0.00 0.00 0.00 85 1020.5
20190920183539 67 0 1.0 3.0 0.00 0.00 0.00 86 1020.5
20190920183112 66 359 1.0 3.0 0.00 0.00 0.00 87 1020.6
20190920182528 65 0 1.0 5.0 0.00 0.00 0.00 88 1020.7
20190920182027 65 358 2.0 5.0 0.00 0.00 0.00 87 1020.8
20190920181557 66 6 1.0 4.0 0.00 0.00 0.00 86 1020.8
20190920181036 66 25 1.0 4.0 0.00 0.00 0.00 86 1020.9
20190920180529 66 146 0.0 2.0 0.00 0.00 0.00 86 1021.0
20190920180045 67 147 0.0 2.0 0.00 0.00 0.00 86 1021.1
20190920175548 67 0 0.0 2.0 0.00 0.00 0.00 86 1021.1
20190920175028 67 0 0.0 1.0 0.00 0.00 0.00 87 1021.3
20190920174558 66 0 0.0 0.0 0.00 0.00 0.00 87 1021.1
20190920174038 66 0 0.0 2.0 0.00 0.00 0.00 86 1021.3
20190920173528 66 0 0.0 2.0 0.00 0.00 0.00 84 1021.4
20190920173046 67 0 0.0 2.0 0.00 0.00 0.00 84 1021.4
20190920172528 68 0 0.0 2.0 0.00 0.00 0.00 82 1021.5
20190920172035 69 157 1.0 2.0 0.00 0.00 0.00 83 1021.6
20190920171546 69 0 0.0 2.0 0.00 0.00 0.00 81 1021.7
20190920171030 70 0 0.0 2.0 0.00 0.00 0.00 79 1021.7
20190920170528 71 0 0.0 3.0 0.00 0.00 0.00 78 1021.6
20190920170110 72 0 0.0 3.0 0.00 0.00 0.00 79 1021.7
20190920165526 72 173 0.0 2.0 0.00 0.00 0.00 77 1021.7
20190920165029 72 0 0.0 2.0 0.00 0.00 0.00 78 1021.8
20190920164545 72 0 0.0 2.0 0.00 0.00 0.00 79 1021.7
20190920164030 72 0 0.0 2.0 0.00 0.00 0.00 80 1021.6
20190920163529 71 0 0.0 2.0 0.00 0.00 0.00 79 1021.6
20190920163038 71 176 0.0 3.0 0.00 0.00 0.00 80 1021.7
20190920162534 71 176 1.0 3.0 0.00 0.00 0.00 78 1021.7
20190920162028 71 149 1.0 3.0 0.00 0.00 0.00 79 1021.7
20190920161611 71 0 0.0 3.0 0.00 0.00 0.00 79 1021.8
20190920161029 71 146 1.0 3.0 0.00 0.00 0.00 79 1021.9
20190920160529 71 141 1.0 3.0 0.00 0.00 0.00 79 1021.8
20190920160111 71 147 1.0 3.0 0.00 0.00 0.00 81 1021.7
20190920155540 71 0 0.0 3.0 0.00 0.00 0.00 82 1021.8
20190920155030 70 166 0.0 2.0 0.00 0.00 0.00 82 1021.9
20190920154551 69 166 0.0 2.0 0.00 0.00 0.00 83 1021.9
20190920154025 69 178 0.0 3.0 0.00 0.00 0.00 83 1022.0
20190920153528 69 0 0.0 3.0 0.00 0.00 0.00 84 1022.1
20190920153101 69 0 0.0 3.0 0.00 0.00 0.00 84 1022.0
20190920152531 68 0 1.0 3.0 0.00 0.00 0.00 85 1022.2
20190920152027 68 180 0.0 2.0 0.00 0.00 0.00 85 1022.1
20190920151554 68 0 0.0 4.0 0.00 0.00 0.00 85 1022.1
20190920151038 68 0 1.0 4.0 0.00 0.00 0.00 86 1022.0
20190920150528 68 0 0.0 3.0 0.00 0.00 0.00 87 1022.0
20190920150134 67 176 0.0 3.0 0.00 0.00 0.00 87 1022.0
20190920145528 67 0 0.0 3.0 0.00 0.00 0.00 87 1022.0
20190920145029 67 179 1.0 3.0 0.00 0.00 0.00 87 1022.0
20190920144537 67 0 0.0 2.0 0.00 0.00 0.00 87 1022.0
20190920144027 67 0 0.0 5.0 0.00 0.00 0.00 87 1021.9
20190920143528 67 0 1.0 5.0 0.00 0.00 0.00 87 1022.0
20190920143106 67 0 0.0 2.0 0.00 0.00 0.00 87 1022.1
20190920142535 67 0 0.0 3.0 0.00 0.00 0.00 87 1022.1
20190920142033 67 0 0.0 3.0 0.00 0.00 0.00 87 1022.1
20190920141606 67 0 0.0 2.0 0.00 0.00 0.00 88 1022.0
20190920141026 66 0 0.0 0.0 0.00 0.00 0.00 88 1022.0
20190920140528 66 0 0.0 0.0 0.00 0.00 0.00 89 1022.0
20190920140052 66 0 0.0 0.0 0.00 0.00 0.00 90 1022.0
20190920135529 65 0 0.0 0.0 0.00 0.00 0.00 90 1022.0
20190920135029 65 0 0.0 0.0 0.00 0.00 0.00 91 1022.1
20190920134548 65 0 0.0 0.0 0.00 0.00 0.00 92 1022.1
20190920134026 64 0 0.0 0.0 0.00 0.00 0.00 92 1022.0
20190920133528 64 0 0.0 1.0 0.00 0.00 0.00 93 1021.9
20190920133056 64 0 0.0 1.0 0.00 0.00 0.00 94 1022.0
20190920132539 64 0 0.0 1.0 0.00 0.00 0.00 94 1021.9
20190920132029 63 0 0.0 1.0 0.00 0.00 0.00 94 1021.9
20190920131545 63 0 0.0 1.0 0.00 0.00 0.00 94 1021.9
20190920131033 63 0 0.0 0.0 0.00 0.00 0.00 94 1022.1
20190920130535 62 0 0.0 0.0 0.00 0.00 0.00 94 1022.0
20190920130111 62 0 0.0 0.0 0.00 0.00 0.00 94 1021.9
20190920125526 62 0 0.0 0.0 0.00 0.00 0.00 94 1022.0
20190920125026 61 0 0.0 0.0 0.00 0.00 0.00 94 1021.9
20190920124634 61 0 0.0 0.0 0.00 0.00 0.00 94 1022.0
20190920124029 61 0 0.0 0.0 0.00 0.00 0.00 94 1021.8
20190920123535 61 0 0.0 0.0 0.00 0.00 0.00 94 1021.9
20190920123057 61 0 0.0 0.0 0.00 0.00 0.00 94 1021.8
20190920122525 61 0 0.0 0.0 0.00 0.00 0.00 94 1021.7
20190920122033 60 0 0.0 0.0 0.00 0.00 0.00 94 1021.7
20190920121645 60 0 0.0 0.0 0.00 0.00 0.00 94 1021.5
20190920121028 60 0 0.0 0.0 0.00 0.00 0.00 94 1021.3
20190920120537 60 0 0.0 0.0 0.00 0.00 0.00 94 1021.3
20190920120101 60 0 0.0 0.0 0.00 0.00 0.00 94 1021.2
20190920115528 60 0 0.0 0.0 0.00 0.00 0.00 93 1021.1
20190920115026 60 0 0.0 0.0 0.00 0.00 0.00 93 1021.2
20190920114556 60 0 0.0 0.0 0.00 0.00 0.00 93 1021.0
20190920114028 60 0 0.0 0.0 0.00 0.00 0.00 93 1021.0
20190920113533 60 0 0.0 0.0 0.00 0.00 0.00 93 1020.9
20190920113119 60 0 0.0 0.0 0.00 0.00 0.00 93 1020.9
20190920112527 60 0 0.0 0.0 0.00 0.00 0.00 93 1020.8
20190920112032 60 0 0.0 0.0 0.00 0.00 0.00 93 1020.8
20190920111606 60 0 0.0 0.0 0.00 0.00 0.00 92 1020.8
20190920111032 60 0 0.0 0.0 0.00 0.00 0.00 92 1020.7
20190920110533 60 0 0.0 0.0 0.00 0.00 0.00 92 1020.7
20190920110043 60 0 0.0 0.0 0.00 0.00 0.00 91 1020.7
20190920105534 60 0 0.0 0.0 0.00 0.00 0.00 91 1020.7
20190920105034 60 0 0.0 0.0 0.00 0.00 0.00 91 1020.6
20190920104629 60 0 0.0 0.0 0.00 0.00 0.00 91 1020.6
20190920104028 61 0 0.0 0.0 0.00 0.00 0.00 90 1020.6
20190920103526 61 0 0.0 0.0 0.00 0.00 0.00 90 1020.6
20190920103039 61 0 0.0 0.0 0.00 0.00 0.00 90 1020.6
20190920102537 61 0 0.0 0.0 0.00 0.00 0.00 90 1020.7
20190920102027 62 0 0.0 0.0 0.00 0.00 0.00 90 1020.6
20190920101556 62 0 0.0 0.0 0.00 0.00 0.00 89 1020.7
20190920101028 62 0 0.0 0.0 0.00 0.00 0.00 89 1020.7
20190920100535 62 0 0.0 0.0 0.00 0.00 0.00 88 1020.7
20190920100034 62 0 0.0 0.0 0.00 0.00 0.00 88 1020.7
20190920095528 63 0 0.0 0.0 0.00 0.00 0.00 89 1020.5
20190920095025 63 0 0.0 1.0 0.00 0.00 0.00 89 1020.4
20190920094602 63 0 0.0 1.0 0.00 0.00 0.00 88 1020.5
20190920094028 63 0 0.0 0.0 0.00 0.00 0.00 88 1020.3
20190920093528 63 0 0.0 1.0 0.00 0.00 0.00 88 1020.3
20190920093110 63 0 0.0 2.0 0.00 0.00 0.00 88 1020.4
20190920092526 63 186 0.0 2.0 0.00 0.00 0.00 87 1020.4
20190920092031 63 0 0.0 0.0 0.00 0.00 0.00 87 1020.4
20190920091601 63 0 0.0 1.0 0.00 0.00 0.00 87 1020.3
20190920091027 63 0 0.0 1.0 0.00 0.00 0.00 87 1020.5
20190920090526 63 0 0.0 0.0 0.00 0.00 0.00 86 1020.4
20190920090051 63 0 0.0 1.0 0.00 0.00 0.00 86 1020.5
20190920085528 63 0 0.0 1.0 0.00 0.00 0.00 86 1020.5
20190920085030 63 0 0.0 0.0 0.00 0.00 0.00 85 1020.6
20190920084609 63 0 0.0 0.0 0.00 0.00 0.00 85 1020.5
20190920084026 63 0 0.0 0.0 0.00 0.00 0.00 85 1020.7
20190920083529 63 0 0.0 0.0 0.00 0.00 0.00 84 1020.6
20190920083048 63 0 0.0 0.0 0.00 0.00 0.00 84 1020.6
20190920082535 64 0 0.0 0.0 0.00 0.00 0.00 83 1020.5
20190920082033 64 0 0.0 0.0 0.00 0.00 0.00 83 1020.6
20190920081629 64 0 0.0 0.0 0.00 0.00 0.00 83 1020.5
20190920081033 64 0 0.0 0.0 0.00 0.00 0.00 83 1020.5
20190920080526 64 0 0.0 0.0 0.00 0.00 0.00 82 1020.5
20190920080051 64 0 0.0 1.0 0.00 0.00 0.00 82 1020.4
20190920075528 64 0 0.0 1.0 0.00 0.00 0.00 82 1020.5
20190920075027 64 0 0.0 0.0 0.00 0.00 0.00 81 1020.5
20190920074555 64 0 0.0 0.0 0.00 0.00 0.00 81 1020.4
20190920074028 64 0 0.0 0.0 0.00 0.00 0.00 81 1020.5
20190920073528 65 0 0.0 0.0 0.00 0.00 0.00 81 1020.6
20190920073051 65 0 0.0 0.0 0.00 0.00 0.00 80 1020.6
20190920072538 65 0 0.0 0.0 0.00 0.00 0.00 80 1020.5
20190920072028 65 0 0.0 1.0 0.00 0.00 0.00 80 1020.4
20190920071541 65 0 0.0 2.0 0.00 0.00 0.00 79 1020.5
20190920071026 66 186 0.0 2.0 0.00 0.00 0.00 79 1020.5
20190920070528 66 186 0.0 3.0 0.00 0.00 0.00 78 1020.4
20190920070037 66 0 1.0 4.0 0.00 0.00 0.00 77 1020.4
20190920065527 66 184 1.0 4.0 0.00 0.00 0.00 77 1020.2
20190920065028 66 0 1.0 4.0 0.00 0.00 0.00 77 1020.2
20190920064535 66 186 1.0 4.0 0.00 0.00 0.00 77 1020.3
20190920064027 66 214 0.0 3.0 0.00 0.00 0.00 77 1020.2
20190920063531 66 0 1.0 3.0 0.00 0.00 0.00 76 1020.2
20190920063121 66 191 1.0 3.0 0.00 0.00 0.00 76 1020.0
20190920062527 66 189 1.0 3.0 0.00 0.00 0.00 76 1020.1
20190920062028 66 0 1.0 3.0 0.00 0.00 0.00 76 1020.1
20190920061620 66 190 1.0 3.0 0.00 0.00 0.00 76 1020.1
20190920061031 66 206 1.0 4.0 0.00 0.00 0.00 76 1020.3
20190920060527 66 219 1.0 4.0 0.00 0.00 0.00 76 1020.1
20190920060050 66 175 1.0 4.0 0.00 0.00 0.00 76 1020.1
20190920055529 66 191 1.0 4.0 0.00 0.00 0.00 76 1020.0
20190920055030 66 165 1.0 4.0 0.00 0.00 0.00 75 1020.1
20190920054555 66 174 1.0 5.0 0.00 0.00 0.00 75 1020.0
20190920054035 67 196 2.0 5.0 0.00 0.00 0.00 75 1019.9
20190920053528 66 184 1.0 4.0 0.00 0.00 0.00 75 1019.9
20190920053028 66 304 2.0 5.0 0.00 0.00 0.00 76 1019.8
20190920052533 66 151 1.0 5.0 0.00 0.00 0.00 76 1019.9
20190920052030 66 166 1.0 4.0 0.00 0.00 0.00 77 1019.8
20190920051538 66 166 1.0 5.0 0.00 0.00 0.00 77 1019.8
20190920051029 66 191 2.0 5.0 0.00 0.00 0.00 78 1019.8
20190920050533 66 174 1.0 4.0 0.00 0.00 0.00 78 1019.8
20190920050106 66 176 1.0 4.0 0.00 0.00 0.00 78 1019.8
20190920045537 66 164 1.0 4.0 0.00 0.00 0.00 78 1019.8
20190920045033 66 163 0.0 3.0 0.00 0.00 0.00 78 1019.8
20190920044544 66 0 1.0 3.0 0.00 0.00 0.00 78 1019.7
20190920044028 66 0 0.0 3.0 0.00 0.00 0.00 78 1019.6
20190920043529 66 112 1.0 3.0 0.00 0.00 0.00 78 1019.7
20190920043045 66 113 1.0 3.0 0.00 0.00 0.00 78 1019.8
20190920042530 66 0 1.0 3.0 0.00 0.00 0.00 78 1019.8
20190920042031 66 0 0.0 4.0 0.00 0.00 0.00 79 1019.7
20190920041529 66 0 0.0 4.0 0.00 0.00 0.00 78 1019.7
20190920041039 66 210 0.0 3.0 0.00 0.00 0.00 78 1019.7
20190920040534 66 210 0.0 4.0 0.00 0.00 0.00 78 1019.8
20190920040114 66 210 1.0 4.0 0.00 0.00 0.00 78 1019.8
20190920035530 66 0 1.0 3.0 0.00 0.00 0.00 78 1019.8
20190920035033 66 142 0.0 3.0 0.00 0.00 0.00 78 1019.8
20190920034601 66 141 0.0 3.0 0.00 0.00 0.00 78 1019.8
20190920034028 66 169 0.0 3.0 0.00 0.00 0.00 78 1019.7
20190920033533 67 167 1.0 5.0 0.00 0.00 0.00 77 1019.8
20190920033044 67 207 1.0 5.0 0.00 0.00 0.00 77 1019.7
20190920032547 67 227 1.0 4.0 0.00 0.00 0.00 77 1019.9
20190920032029 67 229 1.0 4.0 0.00 0.00 0.00 77 1019.9
20190920031533 67 166 1.0 5.0 0.00 0.00 0.00 76 1019.8
20190920031028 67 266 1.0 5.0 0.00 0.00 0.00 76 1019.8
20190920030530 67 235 1.0 4.0 0.00 0.00 0.00 76 1019.8
20190920030035 68 181 1.0 5.0 0.00 0.00 0.00 76 1019.9
20190920025531 68 181 1.0 5.0 0.00 0.00 0.00 76 1019.8
20190920025030 68 179 0.0 4.0 0.00 0.00 0.00 76 1019.7
20190920024546 68 179 1.0 4.0 0.00 0.00 0.00 76 1019.7
20190920024035 68 210 1.0 5.0 0.00 0.00 0.00 76 1019.8
20190920023533 68 0 2.0 5.0 0.00 0.00 0.00 76 1019.8
20190920023122 68 156 1.0 5.0 0.00 0.00 0.00 77 1019.8
20190920022528 68 285 2.0 5.0 0.00 0.00 0.00 77 1019.8
20190920022028 68 193 1.0 5.0 0.00 0.00 0.00 77 1019.8
20190920021536 68 188 1.0 8.0 0.00 0.00 0.00 77 1019.8
20190920021031 68 184 1.0 8.0 0.00 0.00 0.00 77 1019.7
20190920020533 68 187 1.0 5.0 0.00 0.00 0.00 76 1019.8
20190920020041 68 174 1.0 4.0 0.00 0.00 0.00 76 1019.8
20190920015534 68 167 1.0 5.0 0.00 0.00 0.00 76 1019.7
20190920015029 68 195 2.0 5.0 0.00 0.00 0.00 76 1019.6
20190920014543 68 139 2.0 5.0 0.00 0.00 0.00 76 1019.8
20190920014038 68 226 1.0 6.0 0.00 0.00 0.00 76 1019.8
20190920013527 68 145 2.0 6.0 0.00 0.00 0.00 76 1019.7
20190920013106 68 215 3.0 7.0 0.00 0.00 0.00 77 1019.6
20190920012528 68 186 3.0 7.0 0.00 0.00 0.00 77 1019.6
20190920012029 68 156 2.0 5.0 0.00 0.00 0.00 78 1019.5
20190920011559 67 174 2.0 5.0 0.00 0.00 0.00 79 1019.7
20190920011033 67 161 2.0 5.0 0.00 0.00 0.00 80 1019.7
20190920010538 67 154 0.0 4.0 0.00 0.00 0.00 81 1019.7
20190920010035 67 147 1.0 4.0 0.00 0.00 0.00 81 1019.7
20190920005530 67 0 0.0 5.0 0.00 0.00 0.00 81 1019.6
20190920005028 67 141 1.0 6.0 0.00 0.00 0.00 81 1019.6
20190920004541 67 0 2.0 6.0 0.00 0.00 0.00 81 1019.6
20190920004032 67 195 1.0 8.0 0.00 0.00 0.00 81 1019.4
20190920003532 67 165 3.0 8.0 0.00 0.00 0.00 82 1019.3
20190920003210 67 186 2.0 6.0 0.00 0.00 0.00 82 1019.3
20190920002536 67 229 1.0 6.0 0.00 0.00 0.00 83 1019.2
20190920002027 66 200 2.0 6.0 0.00 0.00 0.00 85 1019.1
20190920001533 65 128 1.0 6.0 0.00 0.00 0.00 87 1019.1
20190920001042 64 215 1.0 6.0 0.00 0.00 0.00 89 1019.1
20190920000533 63 0 0.0 2.0 0.00 0.00 0.00 90 1019.2
20190920000046 63 0 0.0 0.0 0.00 0.00 0.00 88 1019.1
20190919235529 63 0 0.0 1.0 0.00 0.00 0.00 88 1019.2
20190919235027 63 0 0.0 1.0 0.00 0.00 0.00 89 1019.1
20190919234544 63 0 0.0 1.0 0.00 0.00 0.00 89 1019.2
20190919234028 63 0 0.0 1.0 0.00 0.00 0.00 89 1019.1
20190919233529 63 0 0.0 0.0 0.00 0.00 0.00 89 1019.1
20190919233058 62 0 0.0 0.0 0.00 0.00 0.00 88 1019.0
20190919232530 62 0 0.0 0.0 0.00 0.00 0.00 88 1019.0
20190919232037 62 0 0.0 0.0 0.00 0.00 0.00 87 1018.9
20190919231552 62 0 0.0 1.0 0.00 0.00 0.00 87 1019.2
20190919231027 62 0 0.0 1.0 0.00 0.00 0.00 87 1019.1
20190919230532 62 68 0.0 1.0 0.00 0.00 0.00 86 1019.2
20190919230048 62 0 0.0 1.0 0.00 0.00 0.00 86 1019.3
20190919225536 62 0 0.0 2.0 0.00 0.00 0.00 86 1019.2
20190919225032 63 0 0.0 2.0 0.00 0.00 0.00 85 1019.2
20190919224546 63 68 0.0 2.0 0.00 0.00 0.00 85 1019.3